Weather History for KDUX - March, 2013

Change the Weather History Date:

Sunday, March 31, 2013

  Actual Average (KBGD) Record (KBGD)
Temperature  
Mean Temperature 54 °F 54 °F  
Max Temperature 66 °F 68 °F 90 °F (1971)
Min Temperature 43 °F 40 °F 25 °F (1985)
Degree Days  
Heating Degree Days 10 11  
Month to date heating degree days 484  
Since 1 July heating degree days 3477  
Cooling Degree Days 0 0  
Month to date cooling degree days 7  
Year to date cooling degree days 7  
Growing Degree Days 4 (Base 50)    
Moisture  
Dew Point 35 °F    
Average Humidity 57    
Maximum Humidity 94    
Minimum Humidity 23    
Precipitation  
Precipitation 0.03 in 0.06 in 0.61 in (2000)
Month to date precipitation 1.41  
Year to date precipitation 2.62  
Snow  
Snow 0.00 in - 3.00 in (1961)
Month to date snowfall  
Since 1 July snowfall  
Snow Depth -    
Sea Level Pressure  
Sea Level Pressure 30.07 in    
Wind  
Wind Speed 12 mph (NE)    
Max Wind Speed 26 mph    
Max Gust Speed 34 mph    
Visibility 10 miles    
Events Rain    
T = Trace of Precipitation, MM = Missing Value Source: NWS Daily Summary

Daily Weather History Graph

Daily Weather History Graph

Search for Another Location

Airport or City:

Trip Planner

Search our weather history database for the weather conditions in past years. The results will help you decide how hot, cold, wet, or windy it might be!

Date:

Astronomy

Mar. 31, 2013 Rise Set
Actual Time 7:35 AM CDT 8:09 PM CDT
Civil Twilight 7:09 AM CDT 8:35 PM CDT
Nautical Twilight 6:39 AM CDT 9:05 PM CDT
Astronomical Twilight 6:08 AM CDT 9:36 PM CDT
Moon 12:09 AM CDT (3/31) 10:33 AM CDT (3/31)
Length of Visible Light 13h 25m
Length of Day
12h 33m
Waning Gibbous, 77% of the Moon is Illuminated
Mar 31
Waning Gibbous
Apr 2
Last Quarter
Apr 10
New
Apr 18
First Quarter
Apr 25
Full

Hourly Weather History & Observations

Time (CDT) Temp. Windchill Dew Point Humidity Pressure Visibility Wind Dir Wind Speed Gust Speed Precip Events Conditions
12:15 AM 54.9 °F - 31.1 °F 40% 30.00 in 10.0 mi NNE 9.2 mph - N/A   Clear
12:35 AM 55.8 °F - 32.9 °F 42% 30.01 in 10.0 mi NNE 10.4 mph - N/A   Clear
12:55 AM 57.7 °F - 33.1 °F 39% 30.03 in 10.0 mi NNE 15.0 mph 21.9 mph N/A   Clear
1:15 AM 57.9 °F - 36.5 °F 45% 30.05 in 4.0 mi NNE 25.3 mph 33.4 mph N/A   Haze
1:35 AM 52.7 °F - 42.3 °F 68% 30.07 in 7.0 mi NNE 26.5 mph 32.2 mph N/A   Overcast
1:55 AM 50.0 °F - 43.3 °F 78% 30.08 in 7.0 mi NNE 24.2 mph 34.5 mph N/A Rain Light Rain
2:15 AM 48.4 °F - 43.9 °F 84% 30.08 in 10.0 mi NNE 24.2 mph 33.4 mph N/A Rain Light Rain
2:35 AM 47.7 °F - 43.7 °F 86% 30.09 in 10.0 mi NNE 24.2 mph 32.2 mph N/A   Mostly Cloudy
2:55 AM 47.7 °F - 43.2 °F 84% 30.09 in 10.0 mi NNE 19.6 mph 26.5 mph N/A   Scattered Clouds
3:15 AM 47.3 °F - 42.8 °F 84% 30.08 in 10.0 mi NNE 18.4 mph 26.5 mph N/A Rain Light Rain
3:35 AM 46.6 °F - 42.8 °F 87% 30.07 in 10.0 mi NNE 17.3 mph 25.3 mph N/A   Scattered Clouds
3:55 AM 46.0 °F 39.3 °F 42.8 °F 88% 30.07 in 10.0 mi NNE 16.1 mph 23.0 mph N/A   Clear
4:15 AM 46.4 °F 40.1 °F 42.8 °F 87% 30.08 in 10.0 mi NNE 15.0 mph - N/A   Scattered Clouds
4:35 AM 46.4 °F 40.4 °F 43.0 °F 88% 30.08 in 10.0 mi NNE 13.8 mph - N/A   Scattered Clouds
4:55 AM 45.7 °F 41.5 °F 43.7 °F 93% 30.09 in 7.0 mi NNE 8.1 mph - 0.03 in Rain Rain
5:15 AM 45.5 °F 40.3 °F 43.5 °F 93% 30.07 in 10.0 mi NNE 10.4 mph 18.4 mph N/A   Mostly Cloudy
5:35 AM 45.9 °F 40.8 °F 43.7 °F 92% 30.07 in 10.0 mi NNE 10.4 mph - N/A   Scattered Clouds
5:55 AM 45.7 °F 42.0 °F 43.7 °F 93% 30.08 in 10.0 mi North 6.9 mph - N/A   Scattered Clouds
6:15 AM 45.7 °F 41.5 °F 43.9 °F 93% 30.08 in 10.0 mi NNE 8.1 mph - N/A   Mostly Cloudy
6:35 AM 45.5 °F 39.9 °F 43.7 °F 93% 30.09 in 10.0 mi North 11.5 mph - N/A   Mostly Cloudy
6:55 AM 45.5 °F 39.6 °F 43.0 °F 91% 30.10 in 10.0 mi North 12.7 mph - N/A   Scattered Clouds
7:15 AM 45.1 °F 39.5 °F 42.8 °F 91% 30.10 in 10.0 mi North 11.5 mph - N/A   Scattered Clouds
7:35 AM 44.1 °F 39.0 °F 42.1 °F 93% 30.11 in 10.0 mi North 9.2 mph - N/A   Clear
7:55 AM 43.9 °F 37.9 °F 42.1 °F 93% 30.11 in 10.0 mi North 11.5 mph - N/A   Clear
8:15 AM 43.7 °F 39.1 °F 42.1 °F 94% 30.12 in 10.0 mi North 8.1 mph - N/A   Clear
8:35 AM 44.4 °F 40.5 °F 42.8 °F 94% 30.13 in 10.0 mi North 6.9 mph - N/A   Clear
8:55 AM 45.1 °F 39.9 °F 43.3 °F 93% 30.13 in 10.0 mi North 10.4 mph - N/A   Clear
9:15 AM 46.4 °F 40.4 °F 43.5 °F 90% 30.13 in 10.0 mi NNE 13.8 mph - N/A   Clear
9:35 AM 47.3 °F - 43.5 °F 87% 30.14 in 10.0 mi North 11.5 mph - N/A   Clear
9:55 AM 49.3 °F - 43.0 °F 79% 30.14 in 10.0 mi NNE 15.0 mph - N/A   Clear
10:15 AM 50.7 °F - 41.4 °F 70% 30.14 in 10.0 mi NNE 15.0 mph - N/A   Clear
10:35 AM 51.6 °F - 40.1 °F 65% 30.14 in 10.0 mi NNE 11.5 mph 18.4 mph N/A   Clear
10:55 AM 52.9 °F - 39.2 °F 60% 30.14 in 10.0 mi NNE 12.7 mph - N/A   Clear
11:15 AM 54.0 °F - 37.0 °F 53% 30.14 in 10.0 mi North 12.7 mph 17.3 mph N/A   Clear
11:35 AM 55.2 °F - 36.0 °F 48% 30.13 in 10.0 mi NNE 11.5 mph 17.3 mph N/A   Clear
11:55 AM 55.2 °F - 34.5 °F 46% 30.14 in 10.0 mi NE 9.2 mph - N/A   Clear
12:15 PM 57.0 °F - 31.8 °F 38% 30.14 in 10.0 mi NE 10.4 mph 16.1 mph N/A   Clear
12:35 PM 57.6 °F - 31.3 °F 37% 30.13 in 10.0 mi NNE 10.4 mph - N/A   Clear
12:55 PM 58.3 °F - 30.6 °F 35% 30.13 in 10.0 mi ENE 6.9 mph - N/A   Clear
1:15 PM 59.2 °F - 30.2 °F 33% 30.13 in 10.0 mi NE 3.5 mph - N/A   Clear
1:35 PM 59.2 °F - 29.5 °F 32% 30.13 in 10.0 mi ESE 4.6 mph - N/A   Clear
1:55 PM 61.2 °F - 30.7 °F 32% 30.12 in 10.0 mi NNE 4.6 mph - N/A   Clear
2:15 PM 61.5 °F - 29.5 °F 30% 30.11 in 10.0 mi WNW 4.6 mph - N/A   Clear
2:35 PM 62.1 °F - 29.5 °F 29% 30.10 in 10.0 mi East 6.9 mph - N/A   Clear
2:55 PM 62.4 °F - 28.2 °F 27% 30.09 in 10.0 mi SSE 5.8 mph - N/A   Clear
3:15 PM 62.4 °F - 28.2 °F 27% 30.08 in 10.0 mi ENE 5.8 mph - N/A   Clear
3:35 PM 63.5 °F - 27.5 °F 26% 30.07 in 10.0 mi East 4.6 mph - N/A   Clear
3:55 PM 63.5 °F - 26.6 °F 25% 30.06 in 10.0 mi SE 3.5 mph - N/A   Clear
4:15 PM 65.8 °F - 27.1 °F 23% 30.05 in 10.0 mi East 4.6 mph - N/A   Clear
4:35 PM 64.8 °F - 26.4 °F 23% 30.04 in 10.0 mi SE 8.1 mph - N/A   Clear
4:55 PM 66.4 °F - 27.5 °F 23% 30.03 in 10.0 mi SSW 6.9 mph - N/A   Clear
5:15 PM 65.5 °F - 27.3 °F 24% 30.02 in 10.0 mi ESE 4.6 mph - N/A   Clear
5:35 PM 65.7 °F - 27.9 °F 24% 30.02 in 10.0 mi SSW 4.6 mph - N/A   Clear
5:55 PM 66.4 °F - 28.8 °F 24% 30.02 in 10.0 mi SSW 6.9 mph - N/A   Clear
6:15 PM 65.5 °F - 28.4 °F 25% 30.01 in 10.0 mi South 4.6 mph - N/A   Clear
6:35 PM 65.8 °F - 28.4 °F 25% 30.01 in 10.0 mi South 6.9 mph - N/A   Clear
7:15 PM 64.9 °F - 28.8 °F 26% 30.00 in 10.0 mi SW 6.9 mph - N/A   Clear
7:35 PM 63.5 °F - 29.3 °F 28% 30.00 in 10.0 mi SSW 8.1 mph - N/A   Clear
8:15 PM 55.4 °F - 30.2 °F 38% 30.00 in 10.0 mi SSE 9.2 mph - N/A   Clear
8:35 PM 51.6 °F - 28.8 °F 41% 29.99 in 10.0 mi SSE 9.2 mph - N/A   Clear
9:15 PM 50.9 °F - 28.6 °F 42% 29.99 in 10.0 mi SSE 11.5 mph - N/A   Clear
9:35 PM 48.6 °F - 28.0 °F 45% 29.99 in 10.0 mi SSE 10.4 mph - N/A   Clear
9:55 PM 47.8 °F - 29.3 °F 49% 30.00 in 10.0 mi SSE 10.4 mph - N/A   Clear
10:15 PM 48.4 °F - 30.2 °F 49% 30.00 in 10.0 mi SSE 10.4 mph - N/A   Clear
10:35 PM 50.0 °F - 29.7 °F 46% 30.00 in 10.0 mi SSE 10.4 mph - N/A   Clear
10:55 PM 48.6 °F - 30.9 °F 51% 30.00 in 10.0 mi South 11.5 mph - N/A   Clear
11:15 PM 52.5 °F - 32.0 °F 46% 29.99 in 10.0 mi South 11.5 mph - N/A   Clear
11:35 PM 51.8 °F - 32.0 °F 47% 29.98 in 10.0 mi South 11.5 mph - N/A   Clear
11:55 PM 50.0 °F - 32.0 °F 50% 29.98 in 10.0 mi South 11.5 mph - N/A   Clear